N2PUI Weather Reports


Display with metric or nautical units.
time (UTC)temp
F
wind
direction
speed
MPH
gust
MPH
rain 1hr
in
rain 24hr
in
rain mn
in
humidity
%
barometer
mb
20260901031836 66 141 0.0 0.0 0.00 0.39 0.39 95 1018.2
20260901031331 66 141 0.0 0.0 0.00 0.39 0.39 95 1018.3
20260901030825 66 141 0.0 0.0 0.00 0.39 0.39 95 1018.3
20260901030321 66 141 0.0 0.0 0.00 0.39 0.39 95 1018.3
20260901025820 66 141 0.0 0.0 0.00 0.39 0.39 95 1018.3
20260901025315 66 141 0.0 0.0 0.00 0.39 0.39 95 1018.3
20260901024810 66 140 0.0 0.0 0.00 0.39 0.39 95 1018.3
20260901024308 66 144 0.0 0.0 0.00 0.39 0.39 95 1018.2
20260901023801 66 143 0.0 0.0 0.00 0.39 0.39 95 1018.5
20260901023256 66 143 0.0 0.0 0.00 0.39 0.39 95 1018.3
20260901022752 66 143 0.0 0.0 0.00 0.39 0.39 95 1018.4
20260901022248 66 163 0.0 0.0 0.00 0.39 0.39 95 1018.5
20260901021742 66 152 0.0 0.0 0.00 0.39 0.39 95 1018.7
20260901021238 66 162 0.0 0.0 0.00 0.39 0.39 95 1018.5
20260901020733 66 160 0.0 0.0 0.00 0.39 0.39 95 1018.7
20260901020228 66 145 0.0 0.0 0.00 0.39 0.39 95 1018.8
20260901015723 66 154 0.0 0.0 0.00 0.39 0.39 95 1018.5
20260901015218 66 153 0.0 0.0 0.07 0.39 0.39 95 1018.8
20260901014713 66 154 0.0 0.0 0.07 0.39 0.39 95 1018.6
20260901014209 66 154 0.0 0.0 0.00 0.38 0.38 95 1018.6
20260901013704 66 154 0.0 0.0 0.05 0.38 0.38 95 1018.7
20260901013200 66 154 0.0 0.0 0.12 0.38 0.38 95 1018.8
20260901012655 66 154 0.0 0.0 0.07 0.37 0.37 95 1018.9
20260901012149 66 154 0.0 0.0 0.00 0.36 0.36 95 1018.9
20260901011640 66 154 0.0 0.0 0.00 0.36 0.36 95 1018.7
20260901011139 66 152 0.0 0.0 0.00 0.36 0.36 95 1018.7
20260901010633 66 156 0.0 0.0 0.00 0.36 0.36 95 1018.6
20260901010132 66 143 0.0 0.0 0.00 0.36 0.36 95 1018.7
20260901005626 66 129 0.0 0.0 0.00 0.36 0.36 95 1018.7
20260901005121 66 150 0.0 0.0 0.05 0.36 0.36 95 1018.4
20260901004621 66 130 0.0 0.0 0.05 0.36 0.36 95 1018.4
20260901004116 66 147 0.0 0.0 0.00 0.35 0.35 95 1018.7
20260901003612 66 130 0.0 0.0 0.00 0.35 0.35 95 1018.6
20260901003110 66 143 0.0 0.0 0.00 0.35 0.35 95 1018.5
20260901002610 66 117 0.0 0.0 0.00 0.35 0.35 95 1018.3
20260901002105 66 131 0.0 1.0 0.00 0.35 0.35 95 1018.2
20260901001559 66 125 2.0 2.0 0.00 0.35 0.35 95 1018.1
20260901001054 66 129 1.0 2.0 0.00 0.35 0.35 95 1018.1
20260901000549 66 130 2.0 2.0 0.00 0.35 0.35 95 1018.2
20260901000045 66 126 0.0 0.0 0.00 0.35 0.35 95 1018.2
20260831235538 66 135 1.0 1.0 0.00 0.35 0.35 95 1018.4
20260831235034 66 135 2.0 2.0 0.07 0.35 0.35 95 1018.3
20260831234528 66 122 0.0 0.0 0.07 0.35 0.35 95 1018.3
20260831234025 66 138 0.0 0.0 0.00 0.34 0.34 95 1018.5
20260831233520 66 138 0.0 0.0 0.00 0.34 0.34 95 1018.4
20260831233016 66 132 0.0 0.0 0.00 0.34 0.34 95 1018.3
20260831232511 66 116 1.0 1.0 0.00 0.34 0.34 95 1018.5
20260831232006 66 136 0.0 0.0 0.00 0.34 0.34 95 1018.5
20260831231502 66 146 0.0 0.0 0.00 0.34 0.34 95 1018.3
20260831230957 66 138 2.0 3.0 0.00 0.34 0.34 95 1018.6
20260831230453 66 151 0.0 0.0 0.00 0.34 0.34 95 1018.7
20260831225947 66 137 0.0 0.0 0.00 0.34 0.34 95 1018.9
20260831225443 66 139 0.0 0.0 0.00 0.34 0.34 95 1018.8
20260831224938 66 137 0.0 0.0 0.00 0.34 0.34 95 1018.8
20260831224437 66 142 0.0 0.0 0.00 0.34 0.34 95 1018.9
20260831223932 66 131 0.0 0.0 0.00 0.34 0.34 95 1019.0
20260831223428 66 145 0.0 0.0 0.00 0.34 0.34 95 1018.9
20260831222925 66 142 0.0 0.0 0.00 0.34 0.34 95 1019.0
20260831222420 66 140 0.0 0.0 0.07 0.34 0.34 95 1019.0
20260831221915 66 146 0.0 0.0 0.07 0.34 0.34 95 1019.2
20260831221411 66 127 0.0 0.0 0.05 0.33 0.33 95 1019.2
20260831220905 66 145 0.0 0.0 0.05 0.33 0.33 95 1019.2
20260831220355 66 144 0.0 0.0 0.07 0.32 0.32 95 1019.2
20260831215850 66 143 0.0 0.0 0.12 0.32 0.32 95 1019.5
20260831215346 66 152 0.0 0.0 0.00 0.30 0.30 95 1019.6
20260831214842 66 153 0.0 0.0 0.00 0.30 0.30 95 1019.4
20260831214339 66 151 0.0 0.0 0.07 0.30 0.30 95 1019.4
20260831213834 66 127 0.0 0.0 0.07 0.30 0.30 95 1019.4
20260831213331 66 141 0.0 0.0 0.05 0.29 0.29 95 1019.6
20260831212826 66 140 0.0 0.0 0.05 0.29 0.29 95 1019.5
20260831212322 66 140 1.0 1.0 0.07 0.28 0.28 95 1019.5
20260831211820 66 154 0.0 0.0 0.12 0.28 0.28 95 1019.5
20260831211316 66 148 0.0 0.0 0.17 0.27 0.27 95 1019.5
20260831210810 66 143 0.0 0.0 0.19 0.26 0.26 95 1019.5
20260831210307 66 132 0.0 0.0 0.07 0.24 0.24 95 1019.5
20260831205806 66 142 1.0 2.0 0.00 0.23 0.23 95 1019.6
20260831205305 66 148 0.0 0.0 0.00 0.23 0.23 95 1019.4
20260831204756 66 115 2.0 3.0 0.00 0.23 0.23 95 1019.4
20260831204255 66 135 3.0 3.0 0.05 0.23 0.23 95 1019.4
20260831203755 66 133 2.0 2.0 0.05 0.23 0.23 95 1019.5
20260831203249 66 131 3.0 3.0 0.00 0.22 0.22 95 1019.7
20260831202748 66 134 2.0 2.0 0.00 0.22 0.22 95 1019.6
20260831202242 66 140 1.0 1.0 0.00 0.22 0.22 95 1019.5
20260831201737 66 122 3.0 3.0 0.00 0.22 0.22 95 1019.4
20260831201236 66 121 0.0 0.0 0.00 0.22 0.22 95 1019.7
20260831200732 66 138 2.0 2.0 0.00 0.22 0.22 95 1019.8
20260831200232 66 129 1.0 1.0 0.00 0.22 0.22 95 1019.7
20260831195727 66 109 0.0 1.0 0.00 0.22 0.22 95 1019.8
20260831195223 66 116 3.0 3.0 0.00 0.22 0.22 95 1019.8
20260831194718 65 107 0.0 0.0 0.00 0.22 0.22 95 1019.7
20260831194214 65 114 1.0 1.0 0.00 0.22 0.22 95 1019.8
20260831193707 65 93 0.0 0.0 0.00 0.22 0.22 95 1020.0
20260831193202 65 121 3.0 5.0 0.00 0.22 0.22 95 1020.0
20260831192657 65 133 2.0 2.0 0.00 0.22 0.22 95 1020.0
20260831192153 65 120 2.0 2.0 0.00 0.22 0.22 95 1019.8
20260831191648 65 122 2.0 2.0 0.07 0.22 0.22 95 1020.1
20260831191144 65 128 2.0 2.0 0.07 0.22 0.22 95 1020.1
20260831190639 65 124 1.0 1.0 0.00 0.21 0.21 95 1020.0
20260831190138 65 135 1.0 2.0 0.00 0.21 0.21 95 1020.2
20260831185634 65 112 4.0 5.0 0.00 0.21 0.21 95 1020.1
20260831185130 65 153 2.0 2.0 0.00 0.21 0.21 95 1020.2
20260831184629 65 104 5.0 7.0 0.00 0.21 0.21 95 1020.3
20260831184125 65 129 4.0 6.0 0.00 0.21 0.21 95 1020.3
20260831183624 65 106 3.0 3.0 0.00 0.21 0.21 95 1020.6
20260831183124 65 161 2.0 2.0 0.00 0.21 0.21 95 1020.5
20260831182623 65 127 3.0 5.0 0.00 0.21 0.21 95 1020.6
20260831182119 65 131 2.0 3.0 0.00 0.21 0.21 95 1020.7
20260831181614 65 119 2.0 2.0 0.00 0.21 0.21 95 1020.7
20260831181114 65 108 3.0 3.0 0.00 0.21 0.21 95 1020.7
20260831180609 65 128 2.0 2.0 0.00 0.21 0.21 95 1020.9
20260831180104 65 142 1.0 1.0 0.00 0.21 0.21 95 1020.9
20260831175559 65 134 0.0 1.0 0.00 0.21 0.21 95 1020.7
20260831175056 65 129 1.0 1.0 0.00 0.21 0.21 95 1020.8
20260831174551 65 173 4.0 5.0 0.00 0.21 0.21 95 1021.1
20260831174050 65 118 2.0 3.0 0.07 0.21 0.21 95 1021.0
20260831173549 65 147 3.0 3.0 0.12 0.21 0.21 95 1021.0
20260831173045 65 141 2.0 3.0 0.05 0.20 0.20 95 1021.3
20260831172540 65 120 3.0 5.0 0.12 0.19 0.19 95 1021.2
20260831172035 65 124 2.0 3.0 0.19 0.19 0.19 95 1021.4
20260831171531 65 130 2.0 2.0 0.12 0.17 0.17 95 1021.3
20260831171027 65 104 3.0 3.0 0.12 0.16 0.16 95 1021.3
20260831170523 65 117 2.0 3.0 0.12 0.15 0.15 95 1021.4
20260831170021 65 129 3.0 3.0 0.05 0.14 0.14 95 1021.3
20260831165521 65 121 4.0 5.0 0.07 0.13 0.13 95 1021.3
20260831165018 65 121 2.0 2.0 0.07 0.13 0.13 95 1021.6
20260831164513 65 117 2.0 3.0 0.05 0.12 0.12 95 1021.6
20260831164009 65 111 3.0 5.0 0.12 0.12 0.12 95 1021.6
20260831163508 65 123 3.0 5.0 0.12 0.11 0.11 95 1021.6
20260831163004 65 130 1.0 2.0 0.24 0.10 0.10 95 1021.8
20260831162458 65 127 3.0 5.0 0.26 0.09 0.09 95 1021.6
20260831161955 65 129 3.0 3.0 0.19 0.06 0.06 95 1021.5
20260831161453 65 127 2.0 2.0 0.12 0.05 0.05 95 1021.7
20260831160948 66 157 0.0 1.0 0.05 0.03 0.03 94 1021.9
20260831160447 66 163 0.0 0.0 0.17 0.03 0.03 93 1022.0
20260831155948 66 164 0.0 0.0 0.12 0.02 0.02 92 1022.0
20260831155443 66 152 0.0 0.0 0.00 0.00 0.00 91 1021.7
20260831154938 66 128 2.0 2.0 0.00 0.00 0.00 91 1022.0
20260831154435 66 134 2.0 2.0 0.00 0.00 0.00 90 1021.8
20260831153933 66 138 1.0 1.0 0.00 0.00 0.00 90 1021.6
20260831153429 66 133 1.0 2.0 0.00 0.00 0.00 90 1022.0
20260831152925 66 128 1.0 1.0 0.00 0.00 0.00 90 1021.9
20260831152420 66 106 1.0 2.0 0.00 0.00 0.00 90 1021.8
20260831151915 66 118 2.0 2.0 0.00 0.00 0.00 91 1021.7
20260831151414 66 118 2.0 3.0 0.00 0.00 0.00 91 1021.9
20260831150910 66 103 3.0 5.0 0.00 0.00 0.00 91 1021.5
20260831150405 66 155 3.0 3.0 0.00 0.00 0.00 91 1021.6
20260831145904 66 139 2.0 2.0 0.00 0.00 0.00 91 1021.5
20260831145401 66 126 2.0 3.0 0.00 0.00 0.00 92 1021.5
20260831144856 65 141 3.0 5.0 0.00 0.00 0.00 92 1021.6
20260831144352 65 124 1.0 2.0 0.00 0.00 0.00 92 1021.5
20260831143847 65 122 3.0 3.0 0.00 0.00 0.00 93 1021.6
20260831143342 65 177 3.0 5.0 0.00 0.00 0.00 94 1021.7
20260831142837 64 131 3.0 3.0 0.00 0.00 0.00 95 1021.7
20260831142332 64 132 2.0 3.0 0.00 0.00 0.00 95 1021.4
20260831141832 63 113 3.0 3.0 0.00 0.00 0.00 95 1021.4
20260831141327 63 104 3.0 5.0 0.00 0.00 0.00 95 1021.3
20260831140822 63 110 3.0 5.0 0.00 0.00 0.00 95 1021.5
20260831140316 63 171 3.0 3.0 0.00 0.00 0.00 95 1021.6
20260831135814 63 169 1.0 2.0 0.00 0.00 0.00 95 1021.6
20260831135310 63 125 3.0 3.0 0.00 0.00 0.00 95 1021.6
20260831134805 62 146 0.0 0.0 0.00 0.00 0.00 95 1021.6
20260831134302 63 164 0.0 0.0 0.00 0.00 0.00 95 1021.9
20260831133800 62 155 0.0 0.0 0.00 0.00 0.00 95 1021.6
20260831133255 62 134 0.0 0.0 0.00 0.00 0.00 95 1021.8
20260831132750 62 163 0.0 0.0 0.00 0.00 0.00 95 1021.9
20260831132245 62 167 0.0 0.0 0.00 0.00 0.00 95 1021.9
20260831131744 62 155 0.0 0.0 0.00 0.00 0.00 95 1022.0
20260831131241 62 167 0.0 1.0 0.00 0.00 0.00 95 1022.1
20260831130736 61 167 0.0 0.0 0.00 0.00 0.00 95 1021.9
20260831130231 62 167 0.0 0.0 0.00 0.00 0.00 95 1021.8
20260831125730 61 166 0.0 0.0 0.00 0.00 0.00 95 1021.8
20260831125226 61 167 0.0 0.0 0.00 0.00 0.00 95 1021.6
20260831124720 60 152 0.0 0.0 0.00 0.00 0.00 95 1021.6
20260831124217 60 167 0.0 0.0 0.00 0.00 0.00 95 1021.7
20260831123716 60 167 0.0 0.0 0.00 0.00 0.00 95 1021.9
20260831123216 60 162 0.0 0.0 0.00 0.00 0.00 95 1021.9
20260831122710 60 161 0.0 0.0 0.00 0.00 0.00 95 1021.9
20260831122206 60 162 0.0 0.0 0.00 0.00 0.00 95 1022.0
20260831121705 60 174 0.0 1.0 0.00 0.00 0.00 95 1022.0
20260831121202 60 165 0.0 0.0 0.00 0.00 0.00 95 1022.1
20260831120657 60 165 0.0 0.0 0.00 0.00 0.00 95 1022.2
20260831120151 59 159 0.0 0.0 0.00 0.00 0.00 95 1022.4
20260831115647 59 159 0.0 0.0 0.00 0.00 0.00 95 1022.3
20260831115143 59 147 0.0 0.0 0.00 0.00 0.00 95 1022.2
20260831114642 59 148 0.0 0.0 0.00 0.00 0.00 95 1022.1
20260831114136 59 166 0.0 0.0 0.00 0.00 0.00 95 1022.2
20260831113631 59 166 0.0 0.0 0.00 0.00 0.00 95 1021.9
20260831113126 59 167 0.0 0.0 0.00 0.00 0.00 95 1021.9
20260831112625 59 143 0.0 0.0 0.00 0.00 0.00 95 1021.8
20260831112120 59 163 0.0 0.0 0.00 0.00 0.00 95 1021.8
20260831111616 59 165 0.0 0.0 0.00 0.00 0.00 95 1021.8
20260831111112 59 184 0.0 0.0 0.00 0.00 0.00 95 1022.0
20260831110607 59 175 0.0 0.0 0.00 0.00 0.00 95 1021.6
20260831105601 59 159 0.0 0.0 0.00 0.00 0.00 95 1021.5
20260831105056 59 156 0.0 0.0 0.00 0.00 0.00 95 1021.7
20260831104552 59 149 0.0 0.0 0.00 0.00 0.00 95 1021.6
20260831104048 59 148 0.0 0.0 0.00 0.00 0.00 95 1021.4
20260831103543 59 158 0.0 0.0 0.00 0.00 0.00 95 1021.5
20260831103033 59 118 0.0 0.0 0.00 0.00 0.00 95 1021.3
20260831102527 59 153 0.0 0.0 0.00 0.00 0.00 95 1021.4
20260831102022 59 151 0.0 0.0 0.00 0.00 0.00 95 1021.2
20260831101517 59 140 0.0 0.0 0.00 0.00 0.00 95 1021.3
20260831101014 59 144 0.0 0.0 0.00 0.00 0.00 95 1021.5
20260831100509 59 144 0.0 0.0 0.00 0.00 0.00 95 1021.3
20260831100005 59 144 0.0 0.0 0.00 0.00 0.00 95 1021.4
20260831095503 59 144 0.0 0.0 0.00 0.00 0.00 95 1021.4
20260831094958 59 145 0.0 0.0 0.00 0.00 0.00 95 1021.3
20260831094454 59 134 0.0 0.0 0.00 0.00 0.00 95 1021.3
20260831093950 59 144 0.0 0.0 0.00 0.00 0.00 95 1021.4
20260831093445 59 161 0.0 0.0 0.00 0.00 0.00 95 1021.4
20260831092941 59 163 0.0 0.0 0.00 0.00 0.00 95 1021.3
20260831092437 59 162 0.0 0.0 0.00 0.00 0.00 95 1021.4
20260831091932 59 163 0.0 0.0 0.00 0.00 0.00 95 1021.4
20260831091427 59 156 0.0 0.0 0.00 0.00 0.00 95 1021.4
20260831090922 59 163 0.0 0.0 0.00 0.00 0.00 95 1021.4
20260831090418 59 165 0.0 0.0 0.00 0.00 0.00 95 1021.3
20260831085914 59 166 0.0 0.0 0.00 0.00 0.00 95 1021.6
20260831085409 59 166 0.0 0.0 0.00 0.00 0.00 95 1021.5
20260831084909 59 146 0.0 0.0 0.00 0.00 0.00 95 1021.3
20260831084405 59 140 0.0 0.0 0.00 0.00 0.00 95 1021.3
20260831083901 59 137 0.0 0.0 0.00 0.00 0.00 95 1021.3
20260831083356 59 128 0.0 0.0 0.00 0.00 0.00 95 1021.4
20260831082855 59 165 0.0 0.0 0.00 0.00 0.00 95 1021.4
20260831082349 59 165 0.0 0.0 0.00 0.00 0.00 95 1021.6
20260831081845 59 165 0.0 0.0 0.00 0.00 0.00 95 1021.4
20260831081340 59 165 0.0 0.0 0.00 0.00 0.00 95 1021.3
20260831080837 60 163 0.0 0.0 0.00 0.00 0.00 95 1021.3
20260831080336 60 141 0.0 0.0 0.00 0.00 0.00 95 1021.1
20260831075832 60 141 0.0 0.0 0.00 0.00 0.00 95 1021.2
20260831075327 60 140 0.0 0.0 0.00 0.00 0.00 95 1021.3
20260831074822 60 141 0.0 0.0 0.00 0.00 0.00 95 1021.4
20260831074321 60 147 0.0 0.0 0.00 0.00 0.00 95 1021.2
20260831073817 60 147 0.0 0.0 0.00 0.00 0.00 95 1021.3
20260831073316 60 173 0.0 0.0 0.00 0.00 0.00 95 1021.2
20260831072811 60 154 0.0 0.0 0.00 0.00 0.00 95 1021.2
20260831072307 60 154 0.0 0.0 0.00 0.00 0.00 95 1021.3
20260831071803 60 154 0.0 0.0 0.00 0.00 0.00 95 1021.1
20260831071257 60 154 0.0 0.0 0.00 0.00 0.00 95 1021.2
20260831070757 60 153 0.0 0.0 0.00 0.00 0.00 95 1021.2
20260831070256 60 154 0.0 0.0 0.00 0.00 0.00 95 1021.3
20260831065755 60 154 0.0 0.0 0.00 0.00 0.00 95 1021.2
20260831065253 60 154 0.0 0.0 0.00 0.00 0.00 95 1021.3
20260831064748 60 154 0.0 0.0 0.00 0.00 0.00 95 1021.1
20260831064243 59 155 0.0 0.0 0.00 0.00 0.00 95 1021.1
20260831063740 59 156 0.0 0.0 0.00 0.00 0.00 95 1021.0
20260831063239 59 157 0.0 0.0 0.00 0.00 0.00 95 1021.4
20260831062734 59 142 0.0 0.0 0.00 0.00 0.00 95 1021.1
20260831062229 59 142 0.0 0.0 0.00 0.00 0.00 95 1021.3
20260831061727 59 142 0.0 0.0 0.00 0.00 0.00 95 1021.4
20260831061222 59 154 0.0 0.0 0.00 0.00 0.00 95 1021.6
20260831060718 59 157 0.0 0.0 0.00 0.00 0.00 95 1021.4
20260831060213 59 139 0.0 0.0 0.00 0.00 0.00 95 1021.8
20260831055713 59 139 0.0 0.0 0.00 0.00 0.00 95 1021.8
20260831055207 59 139 0.0 0.0 0.00 0.00 0.00 95 1022.0
20260831054702 59 139 0.0 0.0 0.00 0.00 0.00 95 1021.7
20260831054201 59 140 0.0 0.0 0.00 0.00 0.00 95 1021.6
20260831053656 60 139 0.0 0.0 0.00 0.00 0.00 95 1021.8
20260831053154 60 131 0.0 0.0 0.00 0.00 0.00 95 1021.9
20260831052649 59 163 0.0 0.0 0.00 0.00 0.00 94 1021.9
20260831052148 60 163 0.0 0.0 0.00 0.00 0.00 94 1021.9
20260831051646 60 163 0.0 0.0 0.00 0.00 0.00 94 1021.8
20260831051145 60 167 0.0 0.0 0.00 0.00 0.00 94 1021.6
20260831050640 60 172 0.0 0.0 0.00 0.00 0.00 94 1021.9
20260831050139 60 151 0.0 0.0 0.00 0.00 0.00 94 1021.7
20260831045638 61 144 0.0 0.0 0.00 0.00 0.00 94 1021.8
20260831045133 61 134 0.0 0.0 0.00 0.00 0.00 93 1021.7
20260831044629 61 154 0.0 0.0 0.00 0.00 0.00 93 1021.6
20260831044124 61 134 0.0 0.0 0.00 0.00 0.00 93 1021.7
20260831043619 60 134 0.0 0.0 0.00 0.00 0.00 93 1021.7
20260831043109 61 134 0.0 0.0 0.00 0.00 0.00 93 1021.9
20260831042608 61 137 0.0 0.0 0.00 0.00 0.00 92 1021.8
20260831042103 61 135 0.0 0.0 0.00 0.00 0.00 92 1021.5
20260831041558 62 135 0.0 0.0 0.00 0.00 0.00 92 1021.8
20260831041057 62 135 0.0 0.0 0.00 0.00 0.00 92 1021.8
20260831040552 62 136 0.0 0.0 0.00 0.00 0.00 92 1021.7
20260831040051 62 134 0.0 0.0 0.00 0.00 0.00 92 1021.8
20260831035543 62 138 0.0 0.0 0.00 0.00 0.00 91 1021.6
20260831035039 62 138 0.0 0.0 0.00 0.00 0.00 91 1021.6
20260831034538 63 138 0.0 0.0 0.00 0.00 0.00 91 1021.8
20260831034034 62 139 0.0 0.0 0.00 0.00 0.00 91 1021.6
20260831033530 63 139 0.0 0.0 0.00 0.00 0.00 90 1021.8
20260831033025 63 139 0.0 0.0 0.00 0.00 0.00 90 1021.7
20260831032524 63 139 0.0 0.0 0.00 0.00 0.00 90 1021.7
20260831032020 63 139 0.0 0.0 0.00 0.00 0.00 90 1021.8